EW3608 Weather Reports


time (UTC)temp
C
wind
direction
speed
KPH
gust
KPH
rain 1hr
cm
rain 24hr
cm
rain mn
cm
humidity
%
barometer
mb
20260905065014 18 232 0.0 3.2 0.00 0.00 0.00 48 1017.1
20260905064524 18 245 0.0 3.2 0.00 0.00 0.00 47 1017.1
20260905064012 18 213 0.0 3.2 0.00 0.00 0.00 48 1017.1
20260905063504 18 179 0.0 3.2 0.00 0.00 0.00 49 1017.2
20260905063008 18 198 0.0 3.2 0.00 0.00 0.00 49 1017.1
20260905062507 18 172 0.0 3.2 0.00 0.00 0.00 50 1017.1
20260905062007 18 164 0.0 3.2 0.00 0.00 0.00 49 1017.1
20260905061530 18 171 0.0 3.2 0.00 0.00 0.00 49 1017.0
20260905061011 19 171 0.0 3.2 0.00 0.00 0.00 48 1016.9
20260905060514 19 162 0.0 3.2 0.00 0.00 0.00 47 1016.9
20260905060046 20 157 0.0 3.2 0.00 0.00 0.00 47 1017.0
20260905055504 20 157 0.0 3.2 0.00 0.00 0.00 46 1016.9
20260905055006 20 157 0.0 3.2 0.00 0.00 0.00 46 1016.9
20260905054521 20 157 0.0 3.2 0.00 0.00 0.00 45 1017.1
20260905054008 21 157 0.0 3.2 0.00 0.00 0.00 44 1017.1
20260905053512 21 157 0.0 3.2 0.00 0.00 0.00 43 1017.0
20260905053028 21 157 0.0 3.2 0.00 0.00 0.00 41 1017.0
20260905052511 22 163 0.0 3.2 0.00 0.00 0.00 39 1017.0
20260905052015 22 239 0.0 3.2 0.00 0.00 0.00 38 1016.9
20260905051525 22 255 0.0 3.2 0.00 0.00 0.00 36 1016.9
20260905051005 22 246 0.0 3.2 0.00 0.00 0.00 36 1016.9
20260905050509 22 289 0.0 3.2 0.00 0.00 0.00 36 1017.0
20260905050019 22 290 0.0 3.2 0.00 0.00 0.00 37 1017.0
20260905045516 22 275 0.0 3.2 0.00 0.00 0.00 37 1017.1
20260905045014 22 329 0.0 3.2 0.00 0.00 0.00 37 1017.1
20260905044527 22 319 0.0 3.2 0.00 0.00 0.00 37 1017.1
20260905044014 22 257 0.0 3.2 0.00 0.00 0.00 37 1017.0
20260905043509 22 252 0.0 1.6 0.00 0.00 0.00 38 1016.9
20260905043014 22 250 0.0 3.2 0.00 0.00 0.00 36 1016.9
20260905042509 23 240 0.0 3.2 0.00 0.00 0.00 36 1016.9
20260905042010 23 240 0.0 3.2 0.00 0.00 0.00 36 1016.9
20260905041527 23 268 0.0 3.2 0.00 0.00 0.00 37 1016.9
20260905041013 23 269 0.0 3.2 0.00 0.00 0.00 36 1017.0
20260905040513 23 269 0.0 3.2 0.00 0.00 0.00 37 1017.1
20260905040030 23 267 0.0 3.2 0.00 0.00 0.00 36 1017.1
20260905035506 23 337 0.0 3.2 0.00 0.00 0.00 37 1017.2
20260905035006 24 335 0.0 3.2 0.00 0.00 0.00 34 1017.1
20260905034516 24 335 0.0 3.2 0.00 0.00 0.00 36 1017.2
20260905034010 24 335 0.0 0.0 0.00 0.00 0.00 34 1017.2
20260905033511 25 335 0.0 3.2 0.00 0.00 0.00 35 1017.2
20260905033026 25 335 0.0 3.2 0.00 0.00 0.00 34 1017.2
20260905032513 25 67 0.0 3.2 0.00 0.00 0.00 32 1017.1
20260905032013 26 65 0.0 3.2 0.00 0.00 0.00 34 1017.1
20260905031515 26 67 0.0 3.2 0.00 0.00 0.00 32 1017.1
20260905031010 26 316 0.0 6.4 0.00 0.00 0.00 31 1017.0
20260905030510 26 300 1.6 6.4 0.00 0.00 0.00 30 1016.9
20260905030021 26 343 1.6 6.4 0.00 0.00 0.00 31 1016.9
20260905025511 26 9 0.0 3.2 0.00 0.00 0.00 31 1016.9
20260905025016 26 9 0.0 1.6 0.00 0.00 0.00 32 1016.9
20260905024553 26 9 0.0 3.2 0.00 0.00 0.00 34 1016.8
20260905024013 26 5 0.0 3.2 0.00 0.00 0.00 34 1016.7
20260905023508 26 110 0.0 3.2 0.00 0.00 0.00 36 1016.6
20260905023019 25 352 0.0 3.2 0.00 0.00 0.00 35 1016.4
20260905022508 25 212 0.0 3.2 0.00 0.00 0.00 36 1016.3
20260905022012 25 243 0.0 3.2 0.00 0.00 0.00 35 1016.3
20260905021528 25 109 0.0 3.2 0.00 0.00 0.00 37 1016.2
20260905021013 25 269 0.0 3.2 0.00 0.00 0.00 35 1016.1
20260905020514 25 259 0.0 3.2 0.00 0.00 0.00 35 1016.1
20260905020033 25 110 0.0 3.2 0.00 0.00 0.00 37 1016.1
20260905015507 26 340 0.0 3.2 0.00 0.00 0.00 36 1015.9
20260905015008 26 232 1.6 3.2 0.00 0.00 0.00 35 1015.9
20260905014518 26 119 0.0 3.2 0.00 0.00 0.00 34 1015.9
20260905014015 27 119 0.0 3.2 0.00 0.00 0.00 34 1015.8
20260905013515 27 119 0.0 3.2 0.00 0.00 0.00 33 1015.7
20260905013027 27 119 0.0 0.0 0.00 0.00 0.00 32 1015.7
20260905012517 28 119 0.0 1.6 0.00 0.00 0.00 31 1015.7
20260905012017 28 119 0.0 1.6 0.00 0.00 0.00 30 1015.6
20260905011512 28 119 0.0 1.6 0.00 0.00 0.00 30 1015.6
20260905011009 29 119 0.0 0.0 0.00 0.00 0.00 30 1015.6
20260905010512 29 119 0.0 0.0 0.00 0.00 0.00 29 1015.6
20260905010023 30 119 0.0 0.0 0.00 0.00 0.00 28 1015.6
20260905005515 30 119 0.0 3.2 0.00 0.00 0.00 27 1015.5
20260905005014 30 119 0.0 3.2 0.00 0.00 0.00 27 1015.5
20260905004532 30 119 0.0 3.2 0.00 0.00 0.00 26 1015.5
20260905004016 31 122 0.0 3.2 0.00 0.00 0.00 26 1015.5
20260905003508 31 111 0.0 3.2 0.00 0.00 0.00 25 1015.5
20260905003018 31 95 0.0 3.2 0.00 0.00 0.00 24 1015.5
20260905002503 31 84 0.0 4.8 0.00 0.00 0.00 24 1015.5
20260905002003 32 100 0.0 4.8 0.00 0.00 0.00 23 1015.4
20260905001504 32 92 0.0 4.8 0.00 0.00 0.00 22 1015.4
20260905001004 32 146 0.0 4.8 0.00 0.00 0.00 23 1015.4
20260905000504 32 92 1.6 8.0 0.00 0.00 0.00 22 1015.4
20260905000008 33 85 1.6 11.3 0.00 0.00 0.00 21 1015.4
20260904235510 33 65 3.2 11.3 0.00 0.00 0.00 20 1015.3
20260904235012 33 194 0.0 4.8 0.00 0.00 0.00 17 1015.2
20260904234503 33 40 1.6 4.8 0.00 0.00 0.00 18 1015.2
20260904234003 33 127 0.0 4.8 0.00 0.00 0.00 18 1015.1
20260904233504 33 74 3.2 4.8 0.00 0.00 0.00 17 1015.1
20260904233006 33 24 3.2 4.8 0.00 0.00 0.00 17 1015.1
20260904232506 33 351 1.6 6.4 0.00 0.00 0.00 17 1015.1
20260904232006 34 44 4.8 6.4 0.00 0.00 0.00 18 1015.0
20260904231513 34 69 1.6 6.4 0.00 0.00 0.00 18 1015.0
20260904231009 33 46 0.0 4.8 0.00 0.00 0.00 19 1015.0
20260904230502 33 119 0.0 4.8 0.00 0.00 0.00 18 1015.0
20260904230004 33 52 3.2 4.8 0.00 0.00 0.00 18 1015.1
20260904225502 33 51 1.6 3.2 0.00 0.00 0.00 18 1015.1
20260904225005 33 38 0.0 4.8 0.00 0.00 0.00 19 1015.2
20260904224508 33 59 0.0 4.8 0.00 0.00 0.00 18 1015.2
20260904224008 33 32 1.6 8.0 0.00 0.00 0.00 18 1015.2
20260904223511 34 165 0.0 8.0 0.00 0.00 0.00 18 1015.2
20260904223023 34 120 1.6 8.0 0.00 0.00 0.00 17 1015.2
20260904222507 34 66 3.2 8.0 0.00 0.00 0.00 17 1015.1
20260904222003 35 43 1.6 4.8 0.00 0.00 0.00 16 1015.1
20260904221506 35 93 0.0 3.2 0.00 0.00 0.00 16 1015.2
20260904221006 35 32 1.6 6.4 0.00 0.00 0.00 16 1015.2
20260904220508 35 145 1.6 11.3 0.00 0.00 0.00 16 1015.2
20260904220012 35 196 1.6 11.3 0.00 0.00 0.00 17 1015.2
20260904215511 35 66 1.6 6.4 0.00 0.00 0.00 16 1015.2
20260904215013 35 241 1.6 9.7 0.00 0.00 0.00 16 1015.2
20260904214503 34 158 1.6 9.7 0.00 0.00 0.00 17 1015.2
20260904214003 34 14 1.6 9.7 0.00 0.00 0.00 17 1015.2
20260904213505 34 46 4.8 11.3 0.00 0.00 0.00 18 1015.2
20260904213007 34 61 1.6 16.1 0.00 0.00 0.00 18 1015.3
20260904212506 34 35 8.0 16.1 0.00 0.00 0.00 17 1015.2
20260904212010 34 196 1.6 9.7 0.00 0.00 0.00 18 1015.3
20260904211518 34 53 1.6 9.7 0.00 0.00 0.00 17 1015.4
20260904211013 34 169 3.2 14.5 0.00 0.00 0.00 18 1015.3
20260904210503 34 200 3.2 14.5 0.00 0.00 0.00 18 1015.4
20260904210004 34 113 1.6 12.9 0.00 0.00 0.00 17 1015.4
20260904205504 34 51 4.8 11.3 0.00 0.00 0.00 17 1015.5
20260904205007 34 115 1.6 12.9 0.00 0.00 0.00 17 1015.6
20260904204513 34 132 1.6 12.9 0.00 0.00 0.00 17 1015.6
20260904204009 34 106 3.2 17.7 0.00 0.00 0.00 17 1015.7
20260904203511 34 134 6.4 17.7 0.00 0.00 0.00 17 1015.7
20260904203030 34 140 3.2 8.0 0.00 0.00 0.00 18 1015.9
20260904202503 34 96 1.6 16.1 0.00 0.00 0.00 18 1016.0
20260904202003 34 97 1.6 16.1 0.00 0.00 0.00 17 1016.1
20260904201506 34 146 4.8 16.1 0.00 0.00 0.00 17 1016.3
20260904201008 33 100 3.2 14.5 0.00 0.00 0.00 17 1016.3
20260904200509 33 77 3.2 14.5 0.00 0.00 0.00 17 1016.3
20260904200037 33 95 1.6 9.7 0.00 0.00 0.00 17 1016.3
20260904195512 33 129 3.2 9.7 0.00 0.00 0.00 16 1016.4
20260904195019 33 67 3.2 9.7 0.00 0.00 0.00 17 1016.4
20260904194503 33 134 3.2 12.9 0.00 0.00 0.00 17 1016.4
20260904194009 34 79 3.2 12.9 0.00 0.00 0.00 16 1016.4
20260904193505 33 176 3.2 9.7 0.00 0.00 0.00 16 1016.3
20260904193012 33 334 1.6 11.3 0.00 0.00 0.00 17 1016.4
20260904192511 33 153 3.2 11.3 0.00 0.00 0.00 18 1016.4
20260904192012 33 173 1.6 8.0 0.00 0.00 0.00 17 1016.4
20260904191525 33 144 3.2 8.0 0.00 0.00 0.00 18 1016.5
20260904191014 33 115 3.2 11.3 0.00 0.00 0.00 18 1016.5
20260904190504 33 136 3.2 11.3 0.00 0.00 0.00 19 1016.6
20260904190004 32 157 3.2 12.9 0.00 0.00 0.00 19 1016.6
20260904185504 32 68 4.8 12.9 0.00 0.00 0.00 19 1016.6
20260904185008 32 232 3.2 12.9 0.00 0.00 0.00 19 1016.6
20260904184517 32 133 3.2 12.9 0.00 0.00 0.00 19 1016.7
20260904184016 32 175 3.2 12.9 0.00 0.00 0.00 20 1016.8
20260904183513 32 61 1.6 16.1 0.00 0.00 0.00 20 1016.9
20260904183028 31 24 3.2 16.1 0.00 0.00 0.00 20 1017.1
20260904182502 32 15 4.8 14.5 0.00 0.00 0.00 20 1017.2
20260904182009 32 23 1.6 8.0 0.00 0.00 0.00 20 1017.3
20260904181507 32 129 3.2 11.3 0.00 0.00 0.00 20 1017.3
20260904181007 32 222 1.6 11.3 0.00 0.00 0.00 20 1017.3
20260904180511 31 206 1.6 6.4 0.00 0.00 0.00 22 1017.4
20260904180024 31 209 1.6 8.0 0.00 0.00 0.00 22 1017.4
20260904175513 31 192 3.2 8.0 0.00 0.00 0.00 22 1017.4
20260904175014 30 146 3.2 8.0 0.00 0.00 0.00 22 1017.4
20260904174505 30 45 1.6 8.0 0.00 0.00 0.00 24 1017.5
20260904174005 30 36 1.6 12.9 0.00 0.00 0.00 25 1017.5
20260904173506 30 84 3.2 12.9 0.00 0.00 0.00 25 1017.6
20260904173011 30 98 4.8 9.7 0.00 0.00 0.00 25 1017.5
20260904172514 30 324 3.2 8.0 0.00 0.00 0.00 26 1017.5
20260904172013 29 352 1.6 8.0 0.00 0.00 0.00 27 1017.5
20260904171550 28 327 1.6 6.4 0.00 0.00 0.00 29 1017.7
20260904171014 28 34 3.2 8.0 0.00 0.00 0.00 29 1017.7
20260904170503 28 323 1.6 8.0 0.00 0.00 0.00 28 1017.7
20260904170007 28 319 1.6 6.4 0.00 0.00 0.00 29 1017.7
20260904165508 27 59 3.2 9.7 0.00 0.00 0.00 30 1017.8
20260904165010 27 49 1.6 9.7 0.00 0.00 0.00 32 1017.9
20260904164518 27 5 1.6 6.4 0.00 0.00 0.00 32 1017.8
20260904164017 27 24 3.2 6.4 0.00 0.00 0.00 33 1017.9
20260904163514 26 38 1.6 6.4 0.00 0.00 0.00 32 1018.0
20260904163046 26 116 1.6 4.8 0.00 0.00 0.00 31 1018.0
20260904162509 26 349 1.6 6.4 0.00 0.00 0.00 31 1018.1
20260904162004 26 66 1.6 6.4 0.00 0.00 0.00 33 1018.1
20260904161514 25 38 1.6 4.8 0.00 0.00 0.00 34 1018.1
20260904161011 25 65 0.0 4.8 0.00 0.00 0.00 34 1018.0
20260904160510 25 340 1.6 4.8 0.00 0.00 0.00 33 1018.0
20260904160029 25 5 1.6 4.8 0.00 0.00 0.00 34 1018.0
20260904155516 24 34 1.6 4.8 0.00 0.00 0.00 35 1018.0
20260904155013 24 327 0.0 6.4 0.00 0.00 0.00 35 1018.0
20260904154509 24 42 3.2 6.4 0.00 0.00 0.00 35 1017.9
20260904154009 23 331 3.2 6.4 0.00 0.00 0.00 35 1017.9
20260904153510 23 324 1.6 3.2 0.00 0.00 0.00 36 1017.9
20260904153025 23 9 1.6 4.8 0.00 0.00 0.00 36 1017.8
20260904152512 23 325 1.6 4.8 0.00 0.00 0.00 35 1017.8
20260904152003 22 37 1.6 4.8 0.00 0.00 0.00 35 1017.7
20260904151503 22 9 1.6 4.8 0.00 0.00 0.00 36 1017.7
20260904151006 21 342 1.6 3.2 0.00 0.00 0.00 36 1017.7
20260904150503 21 69 1.6 3.2 0.00 0.00 0.00 35 1017.7
20260904150017 21 302 0.0 4.8 0.00 0.00 0.00 38 1017.6
20260904145508 20 248 0.0 4.8 0.00 0.00 0.00 39 1017.7
20260904145012 19 310 0.0 3.2 0.00 0.00 0.00 43 1017.7
20260904144524 19 334 0.0 3.2 0.00 0.00 0.00 44 1017.7
20260904144003 18 352 0.0 3.2 0.00 0.00 0.00 45 1017.6
20260904143504 18 333 0.0 3.2 0.00 0.00 0.00 45 1017.7
20260904143006 18 324 0.0 3.2 0.00 0.00 0.00 47 1017.7
20260904142507 17 352 0.0 3.2 0.00 0.00 0.00 48 1017.6
20260904142006 17 352 0.0 3.2 0.00 0.00 0.00 49 1017.7
20260904141516 17 352 1.6 3.2 0.00 0.00 0.00 51 1017.7
20260904141011 16 28 0.0 3.2 0.00 0.00 0.00 55 1017.7
20260904140519 16 29 0.0 3.2 0.00 0.00 0.00 58 1017.6
20260904140003 16 48 0.0 3.2 0.00 0.00 0.00 60 1017.4
20260904135504 15 59 1.6 3.2 0.00 0.00 0.00 61 1017.4
20260904135004 15 60 1.6 3.2 0.00 0.00 0.00 62 1017.3
20260904134509 15 192 0.0 3.2 0.00 0.00 0.00 61 1017.2
20260904134010 14 192 0.0 3.2 0.00 0.00 0.00 61 1017.1
20260904133510 13 190 0.0 3.2 0.00 0.00 0.00 59 1017.0
20260904133024 13 194 1.6 3.2 0.00 0.00 0.00 58 1017.0
20260904132518 13 274 0.0 3.2 0.00 0.00 0.00 62 1017.0
20260904132004 13 338 0.0 3.2 0.00 0.00 0.00 62 1017.0
20260904131506 13 339 0.0 3.2 0.00 0.00 0.00 64 1016.8
20260904131003 13 205 0.0 3.2 0.00 0.00 0.00 62 1016.9
20260904130507 13 177 0.0 3.2 0.00 0.00 0.00 61 1016.8
20260904130015 13 176 0.0 4.8 0.00 0.00 0.00 62 1016.8
20260904125510 13 168 0.0 4.8 0.00 0.00 0.00 59 1016.8
20260904125014 12 167 0.0 4.8 0.00 0.00 0.00 57 1016.7
20260904124530 12 174 0.0 3.2 0.00 0.00 0.00 60 1016.6
20260904124005 12 174 0.0 3.2 0.00 0.00 0.00 60 1016.5
20260904123505 12 211 1.6 3.2 0.00 0.00 0.00 60 1016.6
20260904123008 12 200 0.0 3.2 0.00 0.00 0.00 64 1016.6
20260904122508 12 191 0.0 3.2 0.00 0.00 0.00 63 1016.5
20260904122012 12 184 0.0 3.2 0.00 0.00 0.00 64 1016.5
20260904121523 12 184 0.0 3.2 0.00 0.00 0.00 64 1016.5
20260904121016 12 167 0.0 3.2 0.00 0.00 0.00 65 1016.4
20260904120512 12 177 0.0 3.2 0.00 0.00 0.00 65 1016.5
20260904120004 12 184 0.0 3.2 0.00 0.00 0.00 64 1016.3
20260904115503 12 184 1.6 6.4 0.00 0.00 0.00 63 1016.3
20260904115007 12 191 1.6 6.4 0.00 0.00 0.00 65 1016.3
20260904114514 12 189 0.0 3.2 0.00 0.00 0.00 65 1016.2
20260904114010 12 90 0.0 3.2 0.00 0.00 0.00 65 1016.3
20260904113512 12 66 0.0 3.2 0.00 0.00 0.00 64 1016.3
20260904113025 12 66 0.0 3.2 0.00 0.00 0.00 64 1016.2
20260904112515 12 56 0.0 3.2 0.00 0.00 0.00 64 1016.2
20260904112002 12 188 0.0 3.2 0.00 0.00 0.00 63 1016.3
20260904111513 12 183 0.0 3.2 0.00 0.00 0.00 63 1016.2
20260904111007 12 189 1.6 3.2 0.00 0.00 0.00 63 1016.1
20260904110507 13 150 0.0 3.2 0.00 0.00 0.00 62 1016.1
20260904110024 13 173 0.0 3.2 0.00 0.00 0.00 62 1016.1
20260904105514 13 192 0.0 3.2 0.00 0.00 0.00 61 1016.0
20260904105013 13 182 0.0 3.2 0.00 0.00 0.00 61 1015.9
20260904104530 13 129 0.0 3.2 0.00 0.00 0.00 60 1015.8
20260904104007 13 129 0.0 3.2 0.00 0.00 0.00 61 1015.8
20260904103510 13 192 0.0 3.2 0.00 0.00 0.00 59 1015.7
20260904103011 13 191 1.6 3.2 0.00 0.00 0.00 59 1015.7
20260904102508 13 128 0.0 3.2 0.00 0.00 0.00 61 1015.7
20260904102011 13 128 0.0 3.2 0.00 0.00 0.00 59 1015.7
20260904101532 13 206 0.0 3.2 0.00 0.00 0.00 58 1015.6
20260904101021 13 207 0.0 3.2 0.00 0.00 0.00 59 1015.6
20260904100515 13 207 0.0 3.2 0.00 0.00 0.00 60 1015.6
20260904100031 14 181 0.0 3.2 0.00 0.00 0.00 58 1015.6
20260904095507 14 181 0.0 3.2 0.00 0.00 0.00 58 1015.6
20260904095007 14 181 0.0 3.2 0.00 0.00 0.00 59 1015.6
20260904094516 14 181 0.0 3.2 0.00 0.00 0.00 58 1015.6
20260904094012 15 181 0.0 3.2 0.00 0.00 0.00 58 1015.5
20260904093513 15 181 0.0 3.2 0.00 0.00 0.00 59 1015.6
20260904090026 16 182 0.0 3.2 0.00 0.00 0.00 53 1015.3
20260904085514 16 182 0.0 3.2 0.00 0.00 0.00 53 1015.2
20260904085020 16 157 0.0 3.2 0.00 0.00 0.00 53 1015.3
20260904084530 16 164 0.0 3.2 0.00 0.00 0.00 52 1015.4
20260904084018 16 185 1.6 3.2 0.00 0.00 0.00 52 1015.3
20260904083507 16 189 0.0 3.2 0.00 0.00 0.00 51 1015.3
20260904083018 17 189 0.0 3.2 0.00 0.00 0.00 52 1015.3
20260904082511 17 189 0.0 3.2 0.00 0.00 0.00 52 1015.3
20260904082012 17 323 0.0 3.2 0.00 0.00 0.00 52 1015.3
20260904081526 17 323 0.0 3.2 0.00 0.00 0.00 51 1015.3
20260904081016 17 325 0.0 3.2 0.00 0.00 0.00 50 1015.2
20260904080516 17 322 0.0 3.2 0.00 0.00 0.00 49 1015.2
20260904080050 17 327 0.0 3.2 0.00 0.00 0.00 50 1015.2
20260904075506 18 352 0.0 3.2 0.00 0.00 0.00 49 1015.2
20260904075008 17 9 1.6 3.2 0.00 0.00 0.00 45 1015.2
20260904074526 17 53 0.0 3.2 0.00 0.00 0.00 47 1015.2
20260904074014 17 53 0.0 3.2 0.00 0.00 0.00 47 1015.2
20260904073512 17 31 0.0 3.2 0.00 0.00 0.00 46 1015.3
20260904073032 17 95 0.0 3.2 0.00 0.00 0.00 47 1015.4
20260904072519 18 100 0.0 3.2 0.00 0.00 0.00 46 1015.4
20260904072018 18 100 0.0 3.2 0.00 0.00 0.00 46 1015.4
20260904071511 18 121 0.0 3.2 0.00 0.00 0.00 45 1015.4
20260904071008 18 119 0.0 3.2 0.00 0.00 0.00 45 1015.4
20260904070506 18 119 0.0 3.2 0.00 0.00 0.00 45 1015.5
20260904070009 18 113 0.0 3.2 0.00 0.00 0.00 44 1015.6
20260904065504 19 236 0.0 3.2 0.00 0.00 0.00 43 1015.5